Flag for Canada Weather past 2 weeks in Granby, Quebec, Canada

Now
66 °F

Mild.


Feels Like: 66 °F
Forecast: N/A
Wind: 3 mph from Southwest

Location: Frelighsburg

Current Time: Jul 4, 2015 at 7:20:21 PM

Latest Report: Jul 4, 2015 at 7:00 PM


Visibility: N/A

Pressure: 29.92 "Hg

Humidity: 85%

Dew point: 61 °F

Location of GranbyLocation

Historic Weather in Granby — Graph

°F

Granby temperature yesterday

Maximum temperature yesterday: 72 °F (at 4:00 PM)
Minimum temperature yesterday: 48 °F (at 5:00 AM)
Average temperature yesterday: 62 °F

Past Weeks' High & Low Weather Summary

 TemperatureHumidityPressure
High78 °F (Jun 23, 4:00 PM)100% (Jun 21, 6:00 AM)30.15 "Hg (Jun 21, 6:00 AM)
Low48 °F (Jul 3, 5:00 AM)37% (Jul 3, 3:00 PM)29.57 "Hg (Jun 23, 5:00 PM)
Average63 °F76%29.90 "Hg
* Reported Jun 19 6:00 PM — Jul 4 6:00 PM, Granby, Weather by CustomWeather, © 2015

Note: Actual official high and low records may vary slightly from our data, if they occured in-between our weather recording intervals... More about our weather records

Advertising

Granby weather history for previous 24 hours

 ConditionsComfort  
Time TempWeatherWind HumidityBarometerVisibility
6:00 PM
Sat, Jul 4
69 °FMild.2 mph78%29.92 "HgN/A
5:00 PM72 °FMild.5 mph66%29.91 "HgN/A
4:00 PM72 °FMild.5 mph62%29.92 "HgN/A
3:00 PM72 °FMild.3 mph61%29.92 "HgN/A
2:00 PM71 °FMild.5 mph59%29.93 "HgN/A
1:00 PM69 °FMild.3 mph62%29.93 "HgN/A
12:00 PM69 °FMild.3 mph63%29.94 "HgN/A
11:00 AM69 °FMild.5 mph63%29.94 "HgN/A
10:00 AM66 °FMild.5 mph68%29.95 "HgN/A
9:00 AM62 °FCool.3 mph72%29.96 "HgN/A
8:00 AM60 °FCool.2 mph78%29.95 "HgN/A
7:00 AM59 °FCool.2 mph69%29.95 "HgN/A
6:00 AM59 °FCool.3 mph70%29.95 "HgN/A
5:00 AM58 °FCool.2 mph72%29.95 "HgN/A
4:00 AM57 °FCool.5 mph75%29.96 "HgN/A
3:00 AM58 °FCool.5 mph75%29.95 "HgN/A
2:00 AM56 °FCool.6 mph80%29.96 "HgN/A
1:00 AM59 °FCool.6 mph71%29.96 "HgN/A
12:00 AM60 °FCool.5 mph71%29.96 "HgN/A
11:00 PM
Fri, Jul 3
60 °FCool.5 mph73%29.96 "HgN/A
10:00 PM63 °FMild.No wind65%29.96 "HgN/A
9:00 PM63 °FMild.1 mph63%29.96 "HgN/A
8:00 PM65 °FMild.2 mph63%29.96 "HgN/A
7:00 PM69 °FMild.1 mph52%29.95 "HgN/A
Weather by CustomWeather, © 2015

See weather overviewHow to use our weather pages